| time (UTC) | temp F | wind direction | speed knots | gust knots | rain 1hr in | rain 24hr in | rain mn in | humidity % | barometer mb |
| 20260831101717 | 61 | 2 | 6.1 | 8.7 | 0.00 | 0.01 | 0.01 | 81 | 1029.7 |
| 20260831101217 | 61 | 1 | 6.1 | 7.8 | 0.00 | 0.01 | 0.01 | 81 | 1029.6 |
| 20260831100217 | 62 | 8 | 5.2 | 7.8 | 0.00 | 0.01 | 0.01 | 81 | 1029.6 |
| 20260831095717 | 62 | 1 | 6.1 | 7.8 | 0.00 | 0.01 | 0.01 | 81 | 1029.7 |
| 20260831095217 | 62 | 1 | 7.0 | 10.4 | 0.00 | 0.01 | 0.01 | 81 | 1029.6 |
| 20260831094717 | 62 | 3 | 6.1 | 7.8 | 0.00 | 0.01 | 0.01 | 81 | 1029.6 |
| 20260831094217 | 62 | 3 | 7.8 | 10.4 | 0.00 | 0.01 | 0.01 | 81 | 1029.4 |
| 20260831093717 | 62 | 0 | 6.1 | 8.7 | 0.00 | 0.01 | 0.01 | 81 | 1029.6 |
| 20260831093217 | 62 | 0 | 5.2 | 7.0 | 0.00 | 0.01 | 0.01 | 80 | 1029.5 |
| 20260831092717 | 62 | 11 | 5.2 | 7.8 | 0.00 | 0.01 | 0.01 | 80 | 1029.4 |
| 20260831091717 | 62 | 12 | 5.2 | 8.7 | 0.00 | 0.01 | 0.01 | 80 | 1029.4 |
| 20260831091217 | 62 | 12 | 6.1 | 10.4 | 0.00 | 0.01 | 0.01 | 80 | 1029.4 |
| 20260831085717 | 62 | 12 | 5.2 | 7.0 | 0.00 | 0.01 | 0.01 | 79 | 1029.4 |
| 20260831085217 | 62 | 18 | 5.2 | 7.8 | 0.00 | 0.01 | 0.01 | 80 | 1029.2 |
| 20260831084717 | 62 | 13 | 5.2 | 7.8 | 0.00 | 0.01 | 0.01 | 80 | 1029.2 |
| 20260831083718 | 62 | 15 | 5.2 | 8.7 | 0.00 | 0.01 | 0.01 | 80 | 1029.3 |
| 20260831083218 | 62 | 16 | 4.3 | 7.0 | 0.00 | 0.01 | 0.01 | 80 | 1029.4 |
| 20260831082717 | 62 | 18 | 6.1 | 7.8 | 0.00 | 0.01 | 0.01 | 80 | 1029.2 |
| 20260831082217 | 62 | 23 | 5.2 | 8.7 | 0.00 | 0.01 | 0.01 | 80 | 1029.1 |
| 20260831081217 | 62 | 25 | 6.1 | 7.8 | 0.00 | 0.01 | 0.01 | 78 | 1029.1 |
| 20260831075717 | 62 | 24 | 6.1 | 10.4 | 0.00 | 0.01 | 0.01 | 77 | 1029.0 |
| 20260831075217 | 62 | 31 | 8.7 | 10.4 | 0.00 | 0.01 | 0.01 | 76 | 1029.0 |
| 20260831074717 | 62 | 34 | 8.7 | 11.3 | 0.00 | 0.01 | 0.01 | 75 | 1029.0 |
| 20260831074217 | 62 | 30 | 7.8 | 11.3 | 0.00 | 0.01 | 0.01 | 74 | 1028.9 |
| 20260831073717 | 63 | 37 | 10.4 | 11.3 | 0.00 | 0.01 | 0.01 | 73 | 1029.0 |
| 20260831073217 | 63 | 42 | 9.6 | 10.4 | 0.00 | 0.01 | 0.01 | 72 | 1029.0 |
| 20260831072717 | 63 | 40 | 8.7 | 10.4 | 0.00 | 0.01 | 0.01 | 72 | 1028.9 |
| 20260831072217 | 63 | 40 | 6.1 | 7.8 | 0.00 | 0.01 | 0.01 | 72 | 1029.0 |
| 20260831071217 | 63 | 50 | 6.1 | 10.4 | 0.00 | 0.01 | 0.01 | 71 | 1029.0 |
| 20260831065717 | 63 | 41 | 10.4 | 11.3 | 0.00 | 0.01 | 0.01 | 70 | 1029.0 |
| 20260831065217 | 63 | 43 | 8.7 | 11.3 | 0.00 | 0.01 | 0.01 | 71 | 1028.9 |
| 20260831064717 | 64 | 39 | 8.7 | 11.3 | 0.00 | 0.01 | 0.01 | 70 | 1028.9 |
| 20260831063716 | 64 | 32 | 10.4 | 11.3 | 0.00 | 0.01 | 0.01 | 68 | 1028.8 |
| 20260831062717 | 64 | 45 | 8.7 | 11.3 | 0.00 | 0.01 | 0.01 | 69 | 1028.7 |
| 20260831062217 | 64 | 43 | 8.7 | 11.3 | 0.00 | 0.01 | 0.01 | 66 | 1028.6 |
| 20260831061717 | 64 | 42 | 8.7 | 12.2 | 0.00 | 0.01 | 0.01 | 66 | 1028.7 |
| 20260831061217 | 64 | 52 | 10.4 | 11.3 | 0.00 | 0.01 | 0.01 | 67 | 1028.7 |
| 20260831060717 | 64 | 48 | 8.7 | 10.4 | 0.00 | 0.01 | 0.01 | 65 | 1028.6 |
| 20260831060217 | 64 | 55 | 8.7 | 10.4 | 0.00 | 0.01 | 0.01 | 67 | 1028.6 |
| 20260831055716 | 64 | 56 | 8.7 | 10.4 | 0.00 | 0.01 | 0.01 | 67 | 1028.7 |
| 20260831054217 | 64 | 62 | 10.4 | 12.2 | 0.00 | 0.01 | 0.01 | 68 | 1028.8 |
| 20260831053717 | 64 | 64 | 9.6 | 12.2 | 0.00 | 0.01 | 0.01 | 68 | 1028.7 |
| 20260831053216 | 64 | 62 | 10.4 | 12.2 | 0.00 | 0.01 | 0.01 | 69 | 1028.8 |
| 20260831052717 | 64 | 65 | 10.4 | 11.3 | 0.00 | 0.01 | 0.01 | 70 | 1028.7 |
| 20260831052216 | 64 | 67 | 9.6 | 13.0 | 0.00 | 0.01 | 0.01 | 69 | 1028.8 |
| 20260831051717 | 64 | 63 | 10.4 | 12.2 | 0.00 | 0.01 | 0.01 | 69 | 1028.8 |
| 20260831051216 | 65 | 63 | 10.4 | 12.2 | 0.00 | 0.01 | 0.01 | 69 | 1028.9 |
| 20260831050217 | 65 | 66 | 10.4 | 11.3 | 0.00 | 0.01 | 0.01 | 68 | 1028.9 |
| 20260831045717 | 65 | 67 | 8.7 | 11.3 | 0.00 | 0.01 | 0.01 | 67 | 1029.0 |
| 20260831045217 | 65 | 65 | 8.7 | 11.3 | 0.00 | 0.01 | 0.01 | 68 | 1028.8 |
| 20260831044717 | 65 | 65 | 9.6 | 11.3 | 0.00 | 0.01 | 0.01 | 67 | 1028.9 |
| 20260831044216 | 65 | 65 | 7.8 | 10.4 | 0.00 | 0.01 | 0.01 | 65 | 1029.1 |
| 20260831043717 | 65 | 62 | 8.7 | 10.4 | 0.00 | 0.01 | 0.01 | 64 | 1029.0 |
| 20260831042717 | 66 | 62 | 8.7 | 10.4 | 0.00 | 0.01 | 0.01 | 60 | 1029.0 |
| 20260831042216 | 66 | 60 | 7.8 | 10.4 | 0.00 | 0.01 | 0.01 | 60 | 1029.0 |
| 20260831041717 | 65 | 64 | 8.7 | 10.4 | 0.00 | 0.01 | 0.01 | 63 | 1029.0 |
| 20260831041216 | 65 | 57 | 7.8 | 10.4 | 0.00 | 0.01 | 0.01 | 64 | 1029.0 |
| 20260831040216 | 65 | 59 | 8.7 | 10.4 | 0.00 | 0.01 | 0.01 | 65 | 1029.1 |
| 20260831035717 | 65 | 56 | 7.8 | 10.4 | 0.00 | 0.01 | 0.01 | 62 | 1029.1 |
| 20260831035216 | 66 | 57 | 7.8 | 10.4 | 0.00 | 0.01 | 0.01 | 62 | 1029.1 |
| 20260831034217 | 66 | 64 | 8.7 | 10.4 | 0.00 | 0.01 | 0.01 | 65 | 1029.2 |
| 20260831033717 | 66 | 62 | 9.6 | 10.4 | 0.00 | 0.01 | 0.01 | 64 | 1029.2 |
| 20260831033217 | 66 | 65 | 10.4 | 11.3 | 0.00 | 0.01 | 0.01 | 66 | 1029.3 |
| 20260831032717 | 66 | 67 | 10.4 | 11.3 | 0.00 | 0.01 | 0.01 | 66 | 1029.4 |
| 20260831032217 | 66 | 65 | 8.7 | 10.4 | 0.00 | 0.01 | 0.01 | 65 | 1029.4 |
| 20260831031717 | 66 | 70 | 9.6 | 11.3 | 0.00 | 0.01 | 0.01 | 65 | 1029.5 |
| 20260831030716 | 66 | 64 | 8.7 | 10.4 | 0.00 | 0.01 | 0.01 | 64 | 1029.4 |
| 20260831030216 | 66 | 66 | 8.7 | 10.4 | 0.00 | 0.01 | 0.01 | 64 | 1029.5 |
| 20260831025716 | 67 | 66 | 8.7 | 10.4 | 0.00 | 0.01 | 0.01 | 64 | 1029.5 |
| 20260831025216 | 67 | 69 | 8.7 | 10.4 | 0.00 | 0.01 | 0.01 | 62 | 1029.6 |
| 20260831024717 | 68 | 71 | 8.7 | 10.4 | 0.00 | 0.01 | 0.01 | 61 | 1029.7 |
| 20260831024217 | 67 | 74 | 7.8 | 10.4 | 0.00 | 0.01 | 0.01 | 63 | 1029.6 |
| 20260831023716 | 67 | 72 | 5.2 | 8.7 | 0.00 | 0.01 | 0.01 | 64 | 1029.8 |
| 20260831023216 | 66 | 70 | 7.8 | 10.4 | 0.00 | 0.01 | 0.01 | 63 | 1029.9 |
| 20260831022716 | 67 | 62 | 8.7 | 10.4 | 0.00 | 0.01 | 0.01 | 61 | 1029.9 |
| 20260831022217 | 69 | 69 | 6.1 | 8.7 | 0.00 | 0.01 | 0.01 | 59 | 1030.0 |
| 20260831021716 | 68 | 84 | 5.2 | 7.0 | 0.00 | 0.01 | 0.01 | 60 | 1030.1 |
| 20260831021216 | 67 | 79 | 6.1 | 7.8 | 0.00 | 0.01 | 0.01 | 55 | 1030.3 |
| 20260831020717 | 66 | 84 | 6.1 | 7.8 | 0.00 | 0.01 | 0.01 | 50 | 1030.3 |
| 20260831015717 | 66 | 60 | 7.8 | 8.7 | 0.00 | 0.01 | 0.01 | 52 | 1030.5 |
| 20260831015216 | 65 | 56 | 7.0 | 8.7 | 0.00 | 0.01 | 0.01 | 52 | 1030.6 |
| 20260831014716 | 66 | 53 | 7.0 | 10.4 | 0.00 | 0.01 | 0.01 | 54 | 1030.8 |
| 20260831014216 | 66 | 49 | 7.0 | 7.8 | 0.00 | 0.01 | 0.01 | 54 | 1030.7 |
| 20260831013716 | 66 | 43 | 3.5 | 6.1 | 0.00 | 0.01 | 0.01 | 56 | 1030.8 |
| 20260831011216 | 67 | 72 | 0.9 | 4.3 | 0.00 | 0.01 | 0.01 | 55 | 1031.1 |
| 20260831010216 | 66 | 310 | 0.9 | 4.3 | 0.00 | 0.01 | 0.01 | 55 | 1031.5 |
| 20260831005716 | 66 | 2 | 5.2 | 7.8 | 0.00 | 0.01 | 0.01 | 54 | 1031.5 |
| 20260831005216 | 66 | 352 | 2.6 | 7.0 | 0.00 | 0.01 | 0.01 | 55 | 1031.5 |
| 20260831004216 | 64 | 321 | 6.1 | 8.7 | 0.00 | 0.01 | 0.01 | 55 | 1031.5 |
| 20260831003716 | 64 | 338 | 5.2 | 7.8 | 0.00 | 0.01 | 0.01 | 59 | 1031.6 |
| 20260831003217 | 63 | 344 | 7.8 | 10.4 | 0.00 | 0.01 | 0.01 | 59 | 1031.4 |
| 20260831002716 | 63 | 343 | 7.0 | 10.4 | 0.00 | 0.01 | 0.01 | 61 | 1031.5 |
| 20260831002216 | 63 | 348 | 4.3 | 10.4 | 0.00 | 0.01 | 0.01 | 63 | 1031.5 |
| 20260831001716 | 62 | 355 | 6.1 | 11.3 | 0.00 | 0.01 | 0.01 | 64 | 1031.6 |
| 20260831001216 | 62 | 351 | 9.6 | 11.3 | 0.00 | 0.01 | 0.01 | 63 | 1031.6 |
| 20260831000218 | 62 | 334 | 6.1 | 10.4 | 0.00 | 0.01 | 0.01 | 66 | 1031.5 |
| 20260830235717 | 62 | 344 | 5.2 | 10.4 | 0.00 | 0.01 | 0.01 | 66 | 1031.5 |
| 20260830235216 | 61 | 349 | 5.2 | 10.4 | 0.00 | 0.01 | 0.01 | 67 | 1031.4 |
| 20260830234716 | 61 | 353 | 6.1 | 8.7 | 0.00 | 0.01 | 0.01 | 66 | 1031.5 |
| 20260830234216 | 61 | 353 | 6.1 | 7.8 | 0.00 | 0.01 | 0.01 | 66 | 1031.4 |
| 20260830233716 | 61 | 334 | 5.2 | 7.8 | 0.00 | 0.01 | 0.01 | 67 | 1031.6 |
| 20260830233216 | 61 | 346 | 5.2 | 7.8 | 0.00 | 0.01 | 0.01 | 67 | 1031.5 |
| 20260830232716 | 61 | 341 | 5.2 | 7.8 | 0.00 | 0.01 | 0.01 | 67 | 1031.6 |
| 20260830232216 | 61 | 334 | 5.2 | 7.8 | 0.00 | 0.01 | 0.01 | 69 | 1031.5 |
| 20260830231716 | 60 | 353 | 4.3 | 7.0 | 0.00 | 0.01 | 0.01 | 68 | 1031.6 |
| 20260830231217 | 60 | 341 | 4.3 | 7.0 | 0.00 | 0.01 | 0.01 | 69 | 1031.5 |
| 20260830230716 | 60 | 339 | 4.3 | 6.1 | 0.00 | 0.01 | 0.01 | 70 | 1031.6 |
| 20260830230216 | 60 | 327 | 2.6 | 4.3 | 0.00 | 0.01 | 0.01 | 71 | 1031.6 |
| 20260830225716 | 59 | 339 | 2.6 | 5.2 | 0.00 | 0.01 | 0.01 | 72 | 1031.8 |
| 20260830225216 | 58 | 338 | 3.5 | 5.2 | 0.00 | 0.01 | 0.01 | 73 | 1031.6 |
| 20260830224716 | 58 | 341 | 4.3 | 6.1 | 0.00 | 0.01 | 0.01 | 72 | 1031.5 |
| 20260830224216 | 58 | 340 | 4.3 | 6.1 | 0.00 | 0.01 | 0.01 | 73 | 1031.4 |
| 20260830223716 | 58 | 330 | 4.3 | 6.1 | 0.00 | 0.01 | 0.01 | 74 | 1031.4 |
| 20260830223216 | 58 | 342 | 2.6 | 5.2 | 0.00 | 0.01 | 0.01 | 74 | 1031.6 |
| 20260830222216 | 58 | 342 | 2.6 | 4.3 | 0.00 | 0.01 | 0.01 | 76 | 1031.4 |
| 20260830221716 | 58 | 336 | 2.6 | 4.3 | 0.00 | 0.01 | 0.01 | 77 | 1031.7 |
| 20260830220216 | 57 | 333 | 0.0 | 2.6 | 0.00 | 0.01 | 0.01 | 81 | 1031.5 |
| 20260830215716 | 57 | 333 | 0.9 | 4.3 | 0.00 | 0.01 | 0.01 | 82 | 1031.3 |
| 20260830215216 | 56 | 333 | 2.6 | 5.2 | 0.00 | 0.01 | 0.01 | 83 | 1031.4 |
| 20260830214216 | 55 | 329 | 1.7 | 4.3 | 0.00 | 0.01 | 0.01 | 87 | 1031.1 |
| 20260830213716 | 55 | 332 | 4.3 | 5.2 | 0.00 | 0.01 | 0.01 | 87 | 1031.2 |
| 20260830213215 | 54 | 332 | 5.2 | 6.1 | 0.00 | 0.01 | 0.01 | 88 | 1031.1 |
| 20260830212716 | 54 | 330 | 5.2 | 7.0 | 0.00 | 0.01 | 0.01 | 89 | 1030.9 |
| 20260830212216 | 53 | 330 | 4.3 | 6.1 | 0.00 | 0.01 | 0.01 | 89 | 1030.9 |
| 20260830211715 | 53 | 334 | 4.3 | 6.1 | 0.00 | 0.01 | 0.01 | 90 | 1031.1 |
| 20260830211215 | 53 | 321 | 5.2 | 6.1 | 0.00 | 0.01 | 0.01 | 90 | 1030.9 |
| 20260830210715 | 53 | 318 | 5.2 | 6.1 | 0.00 | 0.01 | 0.01 | 90 | 1031.0 |
| 20260830210216 | 53 | 318 | 6.1 | 7.0 | 0.00 | 0.01 | 0.01 | 90 | 1030.8 |
| 20260830205216 | 52 | 326 | 6.1 | 7.0 | 0.00 | 0.01 | 0.01 | 91 | 1030.7 |
| 20260830204716 | 52 | 326 | 5.2 | 6.1 | 0.00 | 0.01 | 0.01 | 91 | 1030.6 |
| 20260830204216 | 52 | 322 | 5.2 | 7.0 | 0.00 | 0.01 | 0.01 | 90 | 1030.6 |
| 20260830203716 | 52 | 321 | 6.1 | 7.0 | 0.00 | 0.01 | 0.01 | 90 | 1030.5 |
| 20260830202715 | 52 | 307 | 6.1 | 7.0 | 0.00 | 0.01 | 0.01 | 90 | 1030.5 |
| 20260830202216 | 52 | 307 | 5.2 | 6.1 | 0.00 | 0.01 | 0.01 | 90 | 1030.3 |
| 20260830201715 | 52 | 307 | 5.2 | 6.1 | 0.01 | 0.01 | 0.01 | 90 | 1030.3 |
| 20260830201215 | 52 | 310 | 5.2 | 5.2 | 0.01 | 0.01 | 0.01 | 89 | 1030.4 |
| 20260830200715 | 52 | 296 | 5.2 | 5.2 | 0.01 | 0.01 | 0.01 | 89 | 1030.3 |
| 20260830200216 | 52 | 289 | 5.2 | 6.1 | 0.01 | 0.01 | 0.01 | 89 | 1030.3 |
| 20260830195716 | 53 | 287 | 4.3 | 5.2 | 0.01 | 0.01 | 0.01 | 89 | 1030.3 |
| 20260830195216 | 53 | 287 | 4.3 | 5.2 | 0.01 | 0.01 | 0.01 | 88 | 1030.1 |
| 20260830194716 | 53 | 274 | 5.2 | 6.1 | 0.01 | 0.01 | 0.01 | 89 | 1030.2 |
| 20260830193715 | 53 | 274 | 5.2 | 6.1 | 0.01 | 0.01 | 0.01 | 89 | 1030.0 |
| 20260830193216 | 54 | 273 | 6.1 | 7.0 | 0.01 | 0.01 | 0.01 | 88 | 1030.0 |
| 20260830192715 | 54 | 273 | 7.0 | 7.0 | 0.01 | 0.01 | 0.01 | 89 | 1029.9 |
| 20260830191215 | 53 | 282 | 6.1 | 7.0 | 0.00 | 0.00 | 0.00 | 88 | 1030.0 |
| 20260830190715 | 54 | 279 | 6.1 | 7.0 | 0.00 | 0.00 | 0.00 | 88 | 1029.9 |
| 20260830190215 | 54 | 279 | 6.1 | 7.0 | 0.00 | 0.00 | 0.00 | 88 | 1029.9 |
| 20260830185216 | 54 | 287 | 5.2 | 6.1 | 0.00 | 0.00 | 0.00 | 87 | 1029.9 |
| 20260830184215 | 54 | 284 | 6.1 | 7.0 | 0.00 | 0.00 | 0.00 | 87 | 1029.8 |
| 20260830183715 | 54 | 283 | 6.1 | 6.1 | 0.00 | 0.00 | 0.00 | 86 | 1029.8 |
| 20260830183215 | 54 | 279 | 5.2 | 6.1 | 0.00 | 0.00 | 0.00 | 86 | 1029.8 |
| 20260830182716 | 54 | 274 | 5.2 | 5.2 | 0.00 | 0.00 | 0.00 | 84 | 1029.8 |
| 20260830182216 | 54 | 274 | 4.3 | 5.2 | 0.00 | 0.00 | 0.00 | 84 | 1029.8 |
| 20260830181716 | 55 | 269 | 4.3 | 5.2 | 0.00 | 0.00 | 0.00 | 83 | 1029.8 |
| 20260830181215 | 55 | 269 | 4.3 | 4.3 | 0.00 | 0.00 | 0.00 | 82 | 1029.8 |
| 20260830180715 | 56 | 286 | 2.6 | 2.6 | 0.00 | 0.00 | 0.00 | 82 | 1029.7 |
| 20260830180215 | 57 | 286 | 1.7 | 2.6 | 0.00 | 0.00 | 0.00 | 82 | 1029.8 |
| 20260830175716 | 57 | 286 | 1.7 | 2.6 | 0.00 | 0.00 | 0.00 | 83 | 1029.7 |
| 20260830175215 | 57 | 281 | 1.7 | 2.6 | 0.00 | 0.00 | 0.00 | 82 | 1029.8 |
| 20260830174716 | 58 | 271 | 2.6 | 2.6 | 0.00 | 0.00 | 0.00 | 82 | 1029.9 |
| 20260830174216 | 58 | 247 | 0.0 | 0.0 | 0.00 | 0.00 | 0.00 | 82 | 1030.0 |
| 20260830173715 | 58 | 241 | 0.0 | 0.0 | 0.00 | 0.00 | 0.00 | 83 | 1030.0 |
| 20260830173216 | 58 | 227 | 0.0 | 0.0 | 0.00 | 0.00 | 0.00 | 82 | 1030.1 |
| 20260830172716 | 58 | 217 | 0.0 | 0.0 | 0.00 | 0.00 | 0.00 | 82 | 1030.1 |
| 20260830172215 | 58 | 217 | 0.9 | 4.3 | 0.00 | 0.00 | 0.00 | 83 | 1030.1 |
| 20260830171715 | 58 | 216 | 3.5 | 4.3 | 0.00 | 0.00 | 0.00 | 82 | 1030.0 |
| 20260830171215 | 58 | 217 | 2.6 | 2.6 | 0.00 | 0.00 | 0.00 | 83 | 1029.9 |
| 20260830170716 | 58 | 217 | 2.6 | 4.3 | 0.00 | 0.00 | 0.00 | 82 | 1030.0 |
| 20260830170215 | 58 | 222 | 4.3 | 5.2 | 0.00 | 0.00 | 0.00 | 82 | 1030.0 |
| 20260830165215 | 58 | 188 | 3.5 | 5.2 | 0.00 | 0.00 | 0.00 | 82 | 1030.1 |
| 20260830164715 | 58 | 197 | 1.7 | 4.3 | 0.00 | 0.00 | 0.00 | 82 | 1030.2 |
| 20260830164215 | 58 | 190 | 3.5 | 5.2 | 0.00 | 0.00 | 0.00 | 82 | 1030.1 |
| 20260830163715 | 58 | 199 | 4.3 | 5.2 | 0.00 | 0.00 | 0.00 | 82 | 1030.3 |
| 20260830163215 | 58 | 192 | 3.5 | 6.1 | 0.00 | 0.00 | 0.00 | 82 | 1030.3 |
| 20260830162715 | 58 | 189 | 5.2 | 6.1 | 0.00 | 0.00 | 0.00 | 82 | 1030.5 |
| 20260830162216 | 58 | 185 | 5.2 | 7.0 | 0.00 | 0.00 | 0.00 | 82 | 1030.7 |
| 20260830161215 | 58 | 193 | 6.1 | 7.8 | 0.00 | 0.00 | 0.00 | 82 | 1030.7 |
| 20260830160215 | 58 | 187 | 6.1 | 7.0 | 0.00 | 0.00 | 0.00 | 82 | 1030.6 |
| 20260830155715 | 58 | 190 | 6.1 | 8.7 | 0.00 | 0.00 | 0.00 | 82 | 1030.7 |
| 20260830155215 | 58 | 195 | 5.2 | 7.0 | 0.00 | 0.00 | 0.00 | 82 | 1030.7 |
| 20260830154715 | 58 | 192 | 5.2 | 6.1 | 0.00 | 0.00 | 0.00 | 82 | 1030.7 |
| 20260830153715 | 58 | 198 | 3.5 | 7.0 | 0.00 | 0.00 | 0.00 | 82 | 1030.7 |
| 20260830153215 | 58 | 192 | 5.2 | 7.0 | 0.00 | 0.00 | 0.00 | 82 | 1030.8 |
| 20260830152715 | 58 | 191 | 6.1 | 7.8 | 0.00 | 0.00 | 0.00 | 82 | 1030.8 |
| 20260830152215 | 58 | 188 | 6.1 | 7.8 | 0.00 | 0.00 | 0.00 | 82 | 1030.8 |
| 20260830151715 | 58 | 192 | 5.2 | 7.0 | 0.00 | 0.00 | 0.00 | 82 | 1030.7 |
| 20260830151215 | 58 | 190 | 6.1 | 7.0 | 0.00 | 0.00 | 0.00 | 82 | 1031.0 |
| 20260830150716 | 58 | 191 | 6.1 | 7.0 | 0.00 | 0.00 | 0.00 | 82 | 1031.0 |
| 20260830150215 | 58 | 186 | 5.2 | 6.1 | 0.00 | 0.00 | 0.00 | 82 | 1030.8 |
| 20260830145715 | 58 | 184 | 6.1 | 7.0 | 0.00 | 0.00 | 0.00 | 82 | 1030.9 |
| 20260830145215 | 58 | 188 | 6.1 | 7.8 | 0.00 | 0.00 | 0.00 | 82 | 1030.8 |
| 20260830144715 | 58 | 193 | 6.1 | 7.8 | 0.00 | 0.00 | 0.00 | 82 | 1031.1 |
| 20260830144215 | 58 | 191 | 6.1 | 7.8 | 0.00 | 0.00 | 0.00 | 82 | 1031.0 |
| 20260830143715 | 58 | 197 | 5.2 | 7.0 | 0.00 | 0.00 | 0.00 | 82 | 1030.9 |
| 20260830141715 | 59 | 184 | 4.3 | 7.0 | 0.00 | 0.00 | 0.00 | 82 | 1030.9 |
| 20260830141215 | 59 | 182 | 5.2 | 6.1 | 0.00 | 0.00 | 0.00 | 82 | 1031.0 |
| 20260830140716 | 59 | 179 | 5.2 | 7.0 | 0.00 | 0.00 | 0.00 | 82 | 1031.0 |
| 20260830140215 | 59 | 180 | 5.2 | 7.0 | 0.00 | 0.00 | 0.00 | 83 | 1030.8 |
| 20260830135716 | 59 | 179 | 6.1 | 7.0 | 0.00 | 0.00 | 0.00 | 82 | 1031.0 |
| 20260830135215 | 59 | 178 | 6.1 | 7.8 | 0.00 | 0.00 | 0.00 | 83 | 1030.8 |
| 20260830134715 | 59 | 177 | 6.1 | 7.8 | 0.00 | 0.00 | 0.00 | 82 | 1031.0 |
| 20260830134215 | 59 | 178 | 7.0 | 7.8 | 0.00 | 0.00 | 0.00 | 82 | 1030.9 |
| 20260830133715 | 59 | 180 | 7.0 | 8.7 | 0.00 | 0.00 | 0.00 | 82 | 1030.9 |
| 20260830132715 | 59 | 188 | 7.0 | 8.7 | 0.00 | 0.00 | 0.00 | 82 | 1031.0 |
| 20260830132215 | 59 | 184 | 7.0 | 8.7 | 0.00 | 0.00 | 0.00 | 82 | 1031.2 |
| 20260830131715 | 59 | 187 | 6.1 | 7.8 | 0.00 | 0.00 | 0.00 | 82 | 1031.1 |
| 20260830131215 | 59 | 186 | 6.1 | 7.0 | 0.00 | 0.00 | 0.00 | 81 | 1031.1 |
| 20260830130715 | 59 | 187 | 5.2 | 6.1 | 0.00 | 0.00 | 0.00 | 81 | 1031.1 |
| 20260830130215 | 59 | 191 | 5.2 | 6.1 | 0.00 | 0.00 | 0.00 | 81 | 1031.1 |
| 20260830125715 | 59 | 185 | 5.2 | 6.1 | 0.00 | 0.00 | 0.00 | 81 | 1031.1 |
| 20260830125214 | 59 | 194 | 4.3 | 7.0 | 0.00 | 0.00 | 0.00 | 81 | 1031.2 |
| 20260830124714 | 59 | 180 | 5.2 | 7.0 | 0.00 | 0.00 | 0.00 | 80 | 1031.2 |
| 20260830124215 | 59 | 184 | 5.2 | 7.0 | 0.00 | 0.00 | 0.00 | 81 | 1031.2 |
| 20260830123715 | 59 | 180 | 6.1 | 7.8 | 0.00 | 0.00 | 0.00 | 81 | 1031.3 |
| 20260830122215 | 59 | 173 | 5.2 | 6.1 | 0.00 | 0.00 | 0.00 | 80 | 1031.2 |
| 20260830121715 | 59 | 170 | 4.3 | 6.1 | 0.00 | 0.00 | 0.00 | 81 | 1031.3 |
| 20260830121216 | 59 | 152 | 5.2 | 6.1 | 0.00 | 0.00 | 0.00 | 81 | 1031.2 |
| 20260830120714 | 58 | 164 | 5.2 | 6.1 | 0.00 | 0.00 | 0.00 | 81 | 1031.5 |
| 20260830120215 | 58 | 182 | 5.2 | 7.0 | 0.00 | 0.00 | 0.00 | 80 | 1031.1 |
| 20260830115714 | 58 | 202 | 4.3 | 7.8 | 0.00 | 0.00 | 0.00 | 80 | 1031.1 |
| 20260830115215 | 58 | 241 | 4.3 | 7.8 | 0.00 | 0.00 | 0.00 | 80 | 1031.0 |
| 20260830114715 | 58 | 203 | 4.3 | 6.1 | 0.00 | 0.00 | 0.00 | 79 | 1031.1 |
| 20260830114214 | 58 | 246 | 4.3 | 5.2 | 0.00 | 0.00 | 0.00 | 79 | 1030.8 |
| 20260830113715 | 59 | 249 | 5.2 | 5.2 | 0.00 | 0.00 | 0.00 | 78 | 1030.8 |
| 20260830113215 | 59 | 266 | 3.5 | 4.3 | 0.00 | 0.00 | 0.00 | 78 | 1030.7 |
| 20260830112715 | 59 | 259 | 2.6 | 4.3 | 0.00 | 0.00 | 0.00 | 78 | 1030.6 |
| 20260830112215 | 59 | 256 | 2.6 | 4.3 | 0.00 | 0.00 | 0.00 | 78 | 1030.4 |
| 20260830111715 | 60 | 259 | 1.7 | 2.6 | 0.00 | 0.00 | 0.00 | 78 | 1030.4 |
| 20260830111215 | 59 | 259 | 1.7 | 2.6 | 0.00 | 0.00 | 0.00 | 79 | 1030.7 |
| 20260830110214 | 59 | 259 | 2.6 | 2.6 | 0.00 | 0.00 | 0.00 | 79 | 1030.4 |
| 20260830105714 | 59 | 247 | 1.7 | 2.6 | 0.00 | 0.00 | 0.00 | 79 | 1030.3 |
| 20260830104716 | 59 | 250 | 3.5 | 4.3 | 0.00 | 0.00 | 0.00 | 79 | 1030.7 |
| 20260830104214 | 59 | 246 | 2.6 | 2.6 | 0.00 | 0.00 | 0.00 | 79 | 1030.6 |
| 20260830102714 | 59 | 256 | 2.6 | 4.3 | 0.00 | 0.00 | 0.00 | 78 | 1030.3 |
| 20260830102214 | 59 | 256 | 2.6 | 4.3 | 0.00 | 0.00 | 0.00 | 78 | 1030.4 |